2024-168B (61186 NORAD) Tracking and Keplerian Element Data

This shows tracking and keplerian element data for the satellite.

Feedback or suggestion? Click here.




ElementValue
Catalog61186
Name2024-168B
Epoch Orbit39
Epoch Day284.61423185
Epoch Year2024
RAAN323.496
Inclination54.9733
Eccentricity0.0117615
Argument of Perigee177.5427
Mean Anonmoly243.2451
Mean Motion1.82968871
Decay Rate-3.9E-07
L11 61186U 24168B 24284.61423185 -.00000039 00000+0 00000+0 0 9994
L22 61186 54.9733 323.4960 0117615 177.5427 243.2451 1.82968871 399



Live tracking and technical data element details for 2024-168B (NORAD 61186). 2024-168B can be tracked NOW for your location showing map with azimuth and elevation plus other details from your city location.







IsCatalogInMostPopularTable: catalog: 61186, numindb: 23
Update: records affected: 1



GetName: 61186 2024-168B

Hit Count: updated at: Fri, 06 Dec 2024 12:06:55 GMT